DELTA 1 DEB, 10717

Orbit data source: Space-Track

DELTA 1 DEB, 10717 is space debris in SSO originally from a launch on Thu, 29 Jul 1976 UTC launched from the Air Force Western Test Range (AFWTR). Debris objects in space refer to the collection of defunct objects orbiting the Earth. Examples of debris include non-operational satellites, rocket bodies, and fragments generated from explosions, collisions, or faulty payload assembly.

Loading next visibility...
Identifier
10717, 1976-077AN
Orbit
SSO
Country
Flag of USUS
Related business
Manufacturer
Unknown
Mission
Spacecraft
Bus & Motor
Unknown
Mass
Unknown
Launch date (UTC)
1976-07-29 (49 years ago)
Launch vehicle
Unknown
Launch site
Air Force Western Test Range (AFWTR)
Object type
Payload
Rocket body
Debris
Shape & HBR
Unknown shape, 0.1 m
Radar Cross Section
Small (<0.1 m²)

Expand to show TLE details & history
Last TLE update: 1 day ago

TLE from 1 day ago
0 DELTA 1 DEB
1 10717U 76077AN  25348.85142662 -.00000004  00000-0  39108-3 0  9998
2 10717 102.6289 328.2842 0099992 263.7649 158.6001 12.23322890205190
Epoch: 2025-12-14T20:26Z
TLE epoch observation values (Epoch: 2025-12-14T20:26:03.259Z)
Latitude
60.2853°
Longitude
-84.98562°
Altitude
1,662.324 km
Speed
7.015 km/s
True Right ascension
20h 21m 08s
True Declination
60° 09' 13"
Sunlit
Object was in daylight at epoch
Visualization orbit readout
Latitude
Unknown
Longitude
Unknown
Altitude
Unknown
Speed
Unknown
Apparent Right ascension
Unknown
Apparent Declination
Unknown
Sunlit
N/A
Visualization observer readout
Local Sidereal Time
22:30:45
Azimuth
Unknown
Elevation
Unknown
Doppler factor
Unknown
Orbital elements
Apogee altitude
1,655.268 km
Perigee altitude
1,496.203 km
Semi-major axis
7,953.872 km
Eccentricity
0.01
Inclination
102.6289°
RAAN
328.2842°
Arg. of periapsis
263.7649°
True anomaly
159.01337°
Mean anomaly
158.6001°
Eccentric anomaly
158.80721°
Mean motion
3.05967 °/min
Orbital period
117.66 mins
BSTAR
0.00039108
Loading maneuver chart data...
Computing Atmospheric mass density...
Loading historical data...
Loading historical data...
Loading historical data...
Loading historical data...
Loading historical data...
Loading historical data...
Loading historical data...

Documentation

Showing up to 5 results
|